Time,TemperatureF,DewpointF,PressureIn,WindDirection,WindDirectionDegrees,WindSpeedMPH,WindSpeedGustMPH,Humidity,HourlyPrecipIn,Conditions,Clouds,dailyrainin,SoftwareType,DateUTC
2013-02-18 00:25:00,27.0,18.5,29.90,ESE,119,4.0,4.0,70,0.00,,,0.00,Wunderground v.1.15,2013-02-18 06:25:00,
2013-02-18 00:38:00,27.2,18.4,29.90,ESE,113,4.0,5.0,69,0.00,,,0.00,Wunderground v.1.15,2013-02-18 06:38:00,
2013-02-18 00:50:00,27.2,18.4,29.90,ESE,120,3.0,3.0,69,0.00,,,0.00,Wunderground v.1.15,2013-02-18 06:50:00,
2013-02-18 01:06:00,27.2,18.4,29.89,East,97,2.0,19.0,69,0.00,,,0.00,Wunderground v.1.15,2013-02-18 07:06:00,
2013-02-18 01:40:00,27.3,18.5,29.85,SE,137,3.0,3.0,69,0.00,,,0.00,Wunderground v.1.15,2013-02-18 07:40:00,
2013-02-18 03:17:00,27.6,19.4,29.78,ESE,120,3.0,19.0,71,0.00,,,0.00,Wunderground v.1.15,2013-02-18 09:17:00,
2013-02-18 03:40:00,28.1,19.9,29.77,ESE,120,6.0,6.0,71,0.00,,,0.00,Wunderground v.1.15,2013-02-18 09:40:00,
2013-02-18 04:02:00,28.1,19.9,29.76,SE,136,4.0,4.0,71,0.00,,,0.00,Wunderground v.1.15,2013-02-18 10:02:00,
2013-02-18 04:23:00,28.2,20.0,29.74,SE,126,3.0,19.0,71,0.00,,,0.00,Wunderground v.1.15,2013-02-18 10:23:00,
2013-02-18 04:29:00,28.2,20.0,29.74,ESE,119,5.0,19.0,71,0.00,,,0.00,Wunderground v.1.15,2013-02-18 10:29:00,
2013-02-18 04:51:00,28.5,20.3,29.74,SE,136,4.0,19.0,71,0.00,,,0.00,Wunderground v.1.15,2013-02-18 10:51:00,
2013-02-18 04:56:00,28.5,20.3,29.74,SSE,164,4.0,19.0,71,0.00,,,0.00,Wunderground v.1.15,2013-02-18 10:56:00,
2013-02-18 05:07:00,28.7,20.5,29.72,SSE,154,3.0,19.0,71,0.00,,,0.00,Wunderground v.1.15,2013-02-18 11:07:00,
2013-02-18 05:12:00,28.7,20.5,29.72,ESE,119,4.0,19.0,71,0.00,,,0.00,Wunderground v.1.15,2013-02-18 11:12:00,
2013-02-18 05:19:00,28.8,20.6,29.72,SE,131,4.0,4.0,71,0.00,,,0.00,Wunderground v.1.15,2013-02-18 11:19:00,
2013-02-18 05:24:00,28.8,20.6,29.72,SE,127,3.0,19.0,71,0.00,,,0.00,Wunderground v.1.15,2013-02-18 11:24:00,
2013-02-18 05:30:00,28.8,20.6,29.71,SSE,148,4.0,19.0,71,0.00,,,0.00,Wunderground v.1.15,2013-02-18 11:30:00,
2013-02-18 05:36:00,28.8,20.6,29.71,SE,136,3.0,19.0,71,0.00,,,0.00,Wunderground v.1.15,2013-02-18 11:36:00,
2013-02-18 05:41:00,28.8,20.9,29.71,SE,127,3.0,6.0,72,0.00,,,0.00,Wunderground v.1.15,2013-02-18 11:41:00,
2013-02-18 05:46:00,28.7,20.8,29.71,SE,136,3.0,6.0,72,0.00,,,0.00,Wunderground v.1.15,2013-02-18 11:46:00,
2013-02-18 05:52:00,28.7,20.8,29.71,ESE,123,2.0,5.0,72,0.00,,,0.00,Wunderground v.1.15,2013-02-18 11:52:00,
2013-02-18 05:57:00,28.7,20.8,29.71,South,172,2.0,7.0,72,0.00,,,0.00,Wunderground v.1.15,2013-02-18 11:57:00,
2013-02-18 06:03:00,28.7,20.8,29.71,SE,126,2.0,2.0,72,0.00,,,0.00,Wunderground v.1.15,2013-02-18 12:03:00,
2013-02-18 06:08:00,28.7,20.8,29.71,SE,128,3.0,7.0,72,0.00,,,0.00,Wunderground v.1.15,2013-02-18 12:08:00,
2013-02-18 06:14:00,28.5,20.6,29.70,SE,144,2.0,5.0,72,0.00,,,0.00,Wunderground v.1.15,2013-02-18 12:14:00,
2013-02-18 06:20:00,28.5,20.9,29.70,SE,140,3.0,3.0,73,0.00,,,0.00,Wunderground v.1.15,2013-02-18 12:20:00,
2013-02-18 06:26:00,28.5,20.9,29.70,SSE,150,2.0,4.0,73,0.00,,,0.00,Wunderground v.1.15,2013-02-18 12:26:00,
2013-02-18 06:31:00,28.5,20.9,29.70,ESE,119,2.0,6.0,73,0.00,,,0.00,Wunderground v.1.15,2013-02-18 12:31:00,
2013-02-18 06:37:00,28.5,20.9,29.70,SE,140,3.0,7.0,73,0.00,,,0.00,Wunderground v.1.15,2013-02-18 12:37:00,
2013-02-18 06:43:00,28.5,20.9,29.70,ESE,123,2.0,2.0,73,0.00,,,0.00,Wunderground v.1.15,2013-02-18 12:43:00,
2013-02-18 06:49:00,28.4,21.2,29.70,SSE,158,2.0,11.0,74,0.00,,,0.00,Wunderground v.1.15,2013-02-18 12:49:00,
2013-02-18 06:54:00,28.4,21.2,29.70,SE,126,2.0,6.0,74,0.00,,,0.00,Wunderground v.1.15,2013-02-18 12:54:00,
2013-02-18 06:59:00,28.4,21.2,29.70,SE,126,1.0,6.0,74,0.00,,,0.00,Wunderground v.1.15,2013-02-18 12:59:00,
2013-02-18 07:05:00,28.4,21.2,29.70,SE,133,1.0,1.0,74,0.00,,,0.00,Wunderground v.1.15,2013-02-18 13:05:00,
2013-02-18 07:11:00,28.4,21.2,29.70,SE,130,1.0,2.0,74,0.00,,,0.00,Wunderground v.1.15,2013-02-18 13:11:00,
2013-02-18 07:17:00,28.4,21.2,29.69,SSE,164,1.0,3.0,74,0.00,,,0.00,Wunderground v.1.15,2013-02-18 13:17:00,
2013-02-18 07:22:00,28.5,21.3,29.69,SE,143,2.0,3.0,74,0.00,,,0.00,Wunderground v.1.15,2013-02-18 13:22:00,
2013-02-18 07:28:00,28.5,21.6,29.69,SE,141,2.0,6.0,75,0.00,,,0.00,Wunderground v.1.15,2013-02-18 13:28:00,
2013-02-18 07:34:00,28.7,21.8,29.69,SE,128,3.0,6.0,75,0.00,,,0.00,Wunderground v.1.15,2013-02-18 13:34:00,
2013-02-18 07:40:00,28.8,21.9,29.69,SE,136,2.0,2.0,75,0.00,,,0.00,Wunderground v.1.15,2013-02-18 13:40:00,
2013-02-18 07:45:00,29.0,22.1,29.68,SE,136,1.0,11.0,75,0.00,,,0.00,Wunderground v.1.15,2013-02-18 13:45:00,
2013-02-18 07:50:00,29.0,22.1,29.68,SE,140,2.0,2.0,75,0.00,,,0.00,Wunderground v.1.15,2013-02-18 13:50:00,
2013-02-18 07:56:00,29.3,22.4,29.68,SSE,151,1.0,7.0,75,0.00,,,0.00,Wunderground v.1.15,2013-02-18 13:56:00,
2013-02-18 08:02:00,29.4,22.5,29.68,SE,144,3.0,6.0,75,0.00,,,0.00,Wunderground v.1.15,2013-02-18 14:02:00,
2013-02-18 08:07:00,29.5,22.6,29.68,SE,130,3.0,6.0,75,0.00,,,0.00,Wunderground v.1.15,2013-02-18 14:07:00,
2013-02-18 08:14:00,29.8,22.8,29.68,SSE,162,3.0,10.0,75,0.00,,,0.00,Wunderground v.1.15,2013-02-18 14:14:00,
2013-02-18 08:19:00,30.1,23.1,29.68,SSE,158,3.0,10.0,75,0.00,,,0.00,Wunderground v.1.15,2013-02-18 14:19:00,
2013-02-18 08:24:00,30.1,23.1,29.68,SSE,164,2.0,3.0,75,0.00,,,0.00,Wunderground v.1.15,2013-02-18 14:24:00,
2013-02-18 08:30:00,30.6,23.6,29.67,SSE,147,3.0,4.0,75,0.00,,,0.00,Wunderground v.1.15,2013-02-18 14:30:00,
2013-02-18 08:35:00,30.6,23.6,29.67,SE,133,3.0,5.0,75,0.00,,,0.00,Wunderground v.1.15,2013-02-18 14:35:00,
2013-02-18 08:40:00,31.0,24.0,29.67,SSE,161,2.0,2.0,75,0.00,,,0.00,Wunderground v.1.15,2013-02-18 14:40:00,
2013-02-18 08:46:00,31.2,23.9,29.66,SSE,154,3.0,8.0,74,0.00,,,0.00,Wunderground v.1.15,2013-02-18 14:46:00,
2013-02-18 08:52:00,31.5,24.2,29.66,SSE,150,3.0,8.0,74,0.00,,,0.00,Wunderground v.1.15,2013-02-18 14:52:00,
2013-02-18 08:57:00,31.8,24.5,29.66,SSE,162,2.0,8.0,74,0.00,,,0.00,Wunderground v.1.15,2013-02-18 14:57:00,
2013-02-18 09:03:00,31.9,24.6,29.66,SE,134,2.0,5.0,74,0.00,,,0.00,Wunderground v.1.15,2013-02-18 15:03:00,
2013-02-18 09:09:00,32.2,24.8,29.66,SE,145,3.0,6.0,74,0.00,,,0.00,Wunderground v.1.15,2013-02-18 15:09:00,
2013-02-18 09:14:00,32.4,24.7,29.65,ESE,120,3.0,8.0,73,0.00,,,0.00,Wunderground v.1.15,2013-02-18 15:14:00,
2013-02-18 09:20:00,32.7,25.0,29.65,SE,140,3.0,4.0,73,0.00,,,0.00,Wunderground v.1.15,2013-02-18 15:20:00,
2013-02-18 09:26:00,32.9,25.2,29.65,SSW,193,2.0,8.0,73,0.00,,,0.00,Wunderground v.1.15,2013-02-18 15:26:00,
2013-02-18 09:31:00,33.2,25.5,29.64,SE,144,3.0,5.0,73,0.00,,,0.00,Wunderground v.1.15,2013-02-18 15:31:00,
2013-02-18 09:37:00,33.5,25.8,29.64,ESE,106,3.0,7.0,73,0.00,,,0.00,Wunderground v.1.15,2013-02-18 15:37:00,
2013-02-18 09:43:00,34.0,25.9,29.64,SSE,147,3.0,7.0,72,0.00,,,0.00,Wunderground v.1.15,2013-02-18 15:43:00,
2013-02-18 09:48:00,34.1,26.0,29.63,SE,143,3.0,7.0,72,0.00,,,0.00,Wunderground v.1.15,2013-02-18 15:48:00,
2013-02-18 09:54:00,34.6,26.5,29.63,SSE,154,3.0,13.0,72,0.00,,,0.00,Wunderground v.1.15,2013-02-18 15:54:00,
2013-02-18 09:59:00,34.7,26.6,29.63,SE,141,3.0,13.0,72,0.00,,,0.00,Wunderground v.1.15,2013-02-18 15:59:00,
2013-02-18 10:05:00,35.0,26.9,29.63,ESE,120,3.0,7.0,72,0.00,,,0.00,Wunderground v.1.15,2013-02-18 16:05:00,
2013-02-18 10:11:00,35.3,26.8,29.63,South,178,3.0,3.0,71,0.00,,,0.00,Wunderground v.1.15,2013-02-18 16:11:00,
2013-02-18 10:16:00,35.6,27.1,29.62,South,175,3.0,7.0,71,0.00,,,0.00,Wunderground v.1.15,2013-02-18 16:16:00,
2013-02-18 10:22:00,35.9,27.4,29.62,SE,130,3.0,6.0,71,0.00,,,0.00,Wunderground v.1.15,2013-02-18 16:22:00,
2013-02-18 10:28:00,36.3,27.8,29.62,South,172,3.0,6.0,71,0.00,,,0.00,Wunderground v.1.15,2013-02-18 16:28:00,
2013-02-18 10:33:00,36.8,28.3,29.62,South,182,2.0,3.0,71,0.00,,,0.00,Wunderground v.1.15,2013-02-18 16:33:00,
2013-02-18 10:39:00,37.2,28.3,29.62,SE,143,2.0,3.0,70,0.00,,,0.00,Wunderground v.1.15,2013-02-18 16:39:00,
2013-02-18 10:44:00,37.8,28.9,29.61,SSE,150,1.0,3.0,70,0.00,,,0.00,Wunderground v.1.15,2013-02-18 16:44:00,
2013-02-18 10:49:00,38.2,28.9,29.61,SE,128,1.0,4.0,69,0.00,,,0.00,Wunderground v.1.15,2013-02-18 16:49:00,
2013-02-18 10:55:00,38.6,28.9,29.61,South,178,1.0,3.0,68,0.00,,,0.00,Wunderground v.1.15,2013-02-18 16:55:00,
2013-02-18 11:01:00,39.2,29.2,29.61,SSE,151,1.0,2.0,67,0.00,,,0.00,Wunderground v.1.15,2013-02-18 17:01:00,
2013-02-18 11:07:00,39.9,29.8,29.61,SE,140,1.0,2.0,67,0.00,,,0.00,Wunderground v.1.15,2013-02-18 17:07:00,
2013-02-18 11:13:00,40.6,29.7,29.61,SE,145,1.0,8.0,65,0.00,,,0.00,Wunderground v.1.15,2013-02-18 17:13:00,
2013-02-18 11:19:00,41.2,30.3,29.60,South,169,2.0,8.0,65,0.00,,,0.00,Wunderground v.1.15,2013-02-18 17:19:00,
2013-02-18 11:24:00,41.6,30.3,29.60,ESE,121,3.0,8.0,64,0.00,,,0.00,Wunderground v.1.15,2013-02-18 17:24:00,
2013-02-18 11:30:00,41.9,30.2,29.58,SSW,195,3.0,3.0,63,0.00,,,0.00,Wunderground v.1.15,2013-02-18 17:30:00,
2013-02-18 11:39:00,42.1,30.4,29.58,SE,136,2.0,4.0,63,0.00,,,0.00,Wunderground v.1.15,2013-02-18 17:39:00,
2013-02-18 11:45:00,42.2,30.5,29.58,SSE,167,1.0,6.0,63,0.00,,,0.00,Wunderground v.1.15,2013-02-18 17:45:00,
2013-02-18 11:50:00,42.3,30.6,29.58,SE,141,1.0,1.0,63,0.00,,,0.00,Wunderground v.1.15,2013-02-18 17:50:00,
2013-02-18 11:56:00,42.5,30.8,29.58,SE,141,1.0,2.0,63,0.00,,,0.00,Wunderground v.1.15,2013-02-18 17:56:00,
2013-02-18 12:01:00,42.6,30.9,29.58,SSE,160,0.0,0.0,63,0.00,,,0.00,Wunderground v.1.15,2013-02-18 18:01:00,
2013-02-18 12:08:00,42.6,30.9,29.58,SSE,155,1.0,4.0,63,0.00,,,0.00,Wunderground v.1.15,2013-02-18 18:08:00,
2013-02-18 12:13:00,42.8,31.1,29.58,SE,145,1.0,1.0,63,0.00,,,0.00,Wunderground v.1.15,2013-02-18 18:13:00,
2013-02-18 12:18:00,42.9,31.6,29.57,SSE,154,0.0,1.0,64,0.00,,,0.00,Wunderground v.1.15,2013-02-18 18:18:00,
2013-02-18 12:24:00,43.6,31.8,29.57,SSE,152,0.0,2.0,63,0.00,,,0.00,Wunderground v.1.15,2013-02-18 18:24:00,
2013-02-18 12:29:00,44.5,32.3,29.56,ESE,104,0.0,2.0,62,0.00,,,0.00,Wunderground v.1.15,2013-02-18 18:29:00,
2013-02-18 12:35:00,44.5,32.3,29.56,South,172,0.0,1.0,62,0.00,,,0.00,Wunderground v.1.15,2013-02-18 18:35:00,
2013-02-18 12:41:00,44.6,32.4,29.56,SE,126,1.0,1.0,62,0.00,,,0.00,Wunderground v.1.15,2013-02-18 18:41:00,
2013-02-18 12:47:00,44.9,32.7,29.55,SE,137,1.0,3.0,62,0.00,,,0.00,Wunderground v.1.15,2013-02-18 18:47:00,
2013-02-18 12:53:00,45.1,32.8,29.55,South,175,1.0,2.0,62,0.00,,,0.00,Wunderground v.1.15,2013-02-18 18:53:00,
2013-02-18 12:58:00,45.2,32.9,29.55,SE,140,1.0,2.0,62,0.00,,,0.00,Wunderground v.1.15,2013-02-18 18:58:00,
2013-02-18 13:03:00,45.4,33.1,29.54,SW,219,0.0,1.0,62,0.00,,,0.00,Wunderground v.1.15,2013-02-18 19:03:00,
2013-02-18 13:09:00,45.7,33.4,29.54,South,172,0.0,1.0,62,0.00,,,0.00,Wunderground v.1.15,2013-02-18 19:09:00,
2013-02-18 13:15:00,46.1,33.8,29.53,SSE,157,0.0,0.0,62,0.00,,,0.00,Wunderground v.1.15,2013-02-18 19:15:00,
2013-02-18 13:20:00,46.5,33.8,29.53,SE,133,0.0,0.0,61,0.00,,,0.00,Wunderground v.1.15,2013-02-18 19:20:00,
2013-02-18 13:26:00,46.8,34.0,29.53,WSW,237,1.0,3.0,61,0.00,,,0.00,Wunderground v.1.15,2013-02-18 19:26:00,
2013-02-18 13:31:00,47.1,33.9,29.53,SSW,208,1.0,1.0,60,0.00,,,0.00,Wunderground v.1.15,2013-02-18 19:31:00,
2013-02-18 13:37:00,47.3,34.1,29.53,SSE,155,0.0,5.0,60,0.00,,,0.00,Wunderground v.1.15,2013-02-18 19:37:00,
2013-02-18 13:43:00,47.1,33.9,29.53,SSE,157,0.0,1.0,60,0.00,,,0.00,Wunderground v.1.15,2013-02-18 19:43:00,
2013-02-18 13:49:00,47.1,34.3,29.53,SSW,195,1.0,2.0,61,0.00,,,0.00,Wunderground v.1.15,2013-02-18 19:49:00,
2013-02-18 13:55:00,47.0,34.2,29.53,SSW,192,1.0,1.0,61,0.00,,,0.00,Wunderground v.1.15,2013-02-18 19:55:00,
2013-02-18 14:01:00,46.8,34.5,29.52,SSW,206,1.0,1.0,62,0.00,,,0.00,Wunderground v.1.15,2013-02-18 20:01:00,
2013-02-18 14:07:00,46.7,34.8,29.52,WSW,246,0.0,1.0,63,0.00,,,0.00,Wunderground v.1.15,2013-02-18 20:07:00,
2013-02-18 14:13:00,46.5,34.6,29.52,SSW,208,0.0,0.0,63,0.00,,,0.00,Wunderground v.1.15,2013-02-18 20:13:00,
2013-02-18 14:19:00,46.4,34.5,29.52,SSW,193,0.0,0.0,63,0.00,,,0.00,Wunderground v.1.15,2013-02-18 20:19:00,
2013-02-18 14:24:00,46.4,34.9,29.52,South,171,0.0,0.0,64,0.00,,,0.00,Wunderground v.1.15,2013-02-18 20:24:00,
2013-02-18 14:29:00,46.4,34.9,29.51,South,171,0.0,0.0,64,0.00,,,0.00,Wunderground v.1.15,2013-02-18 20:29:00,
2013-02-18 14:34:00,46.2,34.7,29.51,South,171,0.0,0.0,64,0.00,,,0.00,Wunderground v.1.15,2013-02-18 20:34:00,
2013-02-18 14:40:00,46.1,34.6,29.51,SSW,199,0.0,0.0,64,0.00,,,0.00,Wunderground v.1.15,2013-02-18 20:40:00,
2013-02-18 14:45:00,45.8,34.3,29.51,SW,229,0.0,0.0,64,0.00,,,0.00,Wunderground v.1.15,2013-02-18 20:45:00,
2013-02-18 14:51:00,45.5,34.0,29.51,SE,144,0.0,0.0,64,0.00,,,0.00,Wunderground v.1.15,2013-02-18 20:51:00,
2013-02-18 14:57:00,44.9,34.6,29.51,SE,144,0.0,0.0,67,0.00,,,0.00,Wunderground v.1.15,2013-02-18 20:57:00,
2013-02-18 15:02:00,44.6,34.3,29.50,SSE,147,0.0,0.0,67,0.00,,,0.00,Wunderground v.1.15,2013-02-18 21:02:00,
2013-02-18 15:08:00,44.5,35.0,29.50,SE,126,0.0,0.0,69,0.00,,,0.00,Wunderground v.1.15,2013-02-18 21:08:00,
2013-02-18 15:13:00,44.2,34.7,29.50,SE,126,0.0,0.0,69,0.00,,,0.00,Wunderground v.1.15,2013-02-18 21:13:00,
2013-02-18 15:19:00,43.9,34.7,29.50,South,174,0.0,0.0,70,0.00,,,0.00,Wunderground v.1.15,2013-02-18 21:19:00,
2013-02-18 15:24:00,43.8,34.6,29.50,South,174,0.0,0.0,70,0.00,,,0.00,Wunderground v.1.15,2013-02-18 21:24:00,
2013-02-18 15:29:00,43.6,34.8,29.49,SSE,152,0.0,0.0,71,0.00,,,0.00,Wunderground v.1.15,2013-02-18 21:29:00,
2013-02-18 15:35:00,43.5,35.4,29.49,SSE,152,0.0,0.0,73,0.00,,,0.00,Wunderground v.1.15,2013-02-18 21:35:00,
2013-02-18 15:41:00,43.2,35.5,29.49,SSE,152,0.0,0.0,74,0.00,,,0.00,Wunderground v.1.15,2013-02-18 21:41:00,
2013-02-18 15:46:00,42.9,35.2,29.48,SSE,152,0.0,0.0,74,0.00,,,0.00,Wunderground v.1.15,2013-02-18 21:46:00,
2013-02-18 15:52:00,42.8,35.4,29.48,SSE,152,0.0,0.0,75,0.00,,,0.00,Wunderground v.1.15,2013-02-18 21:52:00,
2013-02-18 15:58:00,42.6,35.2,29.48,SSE,152,0.0,0.0,75,0.00,,,0.00,Wunderground v.1.15,2013-02-18 21:58:00,
2013-02-18 16:03:00,42.3,35.3,29.48,SSE,152,0.0,0.0,76,0.00,,,0.00,Wunderground v.1.15,2013-02-18 22:03:00,
2013-02-18 16:09:00,42.2,35.2,29.48,SSE,152,0.0,0.0,76,0.00,,,0.00,Wunderground v.1.15,2013-02-18 22:09:00,
2013-02-18 16:15:00,41.9,34.9,29.48,SSE,152,0.0,0.0,76,0.00,,,0.00,Wunderground v.1.15,2013-02-18 22:15:00,
2013-02-18 16:20:00,41.6,34.9,29.48,SSE,152,0.0,0.0,77,0.00,,,0.00,Wunderground v.1.15,2013-02-18 22:20:00,
2013-02-18 16:26:00,41.3,34.6,29.48,SSE,152,0.0,0.0,77,0.00,,,0.00,Wunderground v.1.15,2013-02-18 22:26:00,
2013-02-18 16:31:00,41.1,34.4,29.47,SSE,154,0.0,0.0,77,0.00,,,0.00,Wunderground v.1.15,2013-02-18 22:31:00,
2013-02-18 16:37:00,40.9,34.6,29.47,SSW,192,0.0,0.0,78,0.00,,,0.01,Wunderground v.1.15,2013-02-18 22:37:00,
2013-02-18 16:42:00,40.9,35.2,29.47,SW,234,0.0,1.0,80,0.00,,,0.01,Wunderground v.1.15,2013-02-18 22:42:00,
2013-02-18 16:48:00,40.8,35.1,29.47,WSW,250,0.0,1.0,80,0.00,,,0.01,Wunderground v.1.15,2013-02-18 22:48:00,
2013-02-18 16:53:00,40.6,35.2,29.47,WSW,248,0.0,0.0,81,0.00,,,0.01,Wunderground v.1.15,2013-02-18 22:53:00,
2013-02-18 16:59:00,40.5,35.1,29.47,WSW,250,0.0,0.0,81,0.00,,,0.01,Wunderground v.1.15,2013-02-18 22:59:00,
2013-02-18 17:04:00,40.3,34.9,29.47,WSW,250,0.0,0.0,81,0.00,,,0.01,Wunderground v.1.15,2013-02-18 23:04:00,
2013-02-18 17:10:00,40.1,35.0,29.47,WSW,250,0.0,0.0,82,0.00,,,0.01,Wunderground v.1.15,2013-02-18 23:10:00,
2013-02-18 17:15:00,39.9,34.9,29.47,WSW,250,0.0,0.0,82,0.00,,,0.01,Wunderground v.1.15,2013-02-18 23:15:00,
2013-02-18 17:21:00,39.8,34.8,29.47,WSW,250,0.0,0.0,82,0.00,,,0.01,Wunderground v.1.15,2013-02-18 23:21:00,
2013-02-18 17:26:00,39.6,34.6,29.47,WSW,250,0.0,0.0,82,0.00,,,0.01,Wunderground v.1.15,2013-02-18 23:26:00,
2013-02-18 17:31:00,39.5,34.5,29.48,WSW,251,0.0,0.0,82,0.00,,,0.01,Wunderground v.1.15,2013-02-18 23:31:00,
2013-02-18 17:37:00,39.3,34.6,29.48,WSW,253,0.0,0.0,83,0.00,,,0.02,Wunderground v.1.15,2013-02-18 23:37:00,
2013-02-18 17:43:00,39.1,34.4,29.48,West,281,0.0,3.0,83,0.00,,,0.02,Wunderground v.1.15,2013-02-18 23:43:00,
2013-02-18 17:49:00,38.8,34.1,29.48,West,272,1.0,6.0,83,0.05,,,0.03,Wunderground v.1.15,2013-02-18 23:49:00,
2013-02-18 17:55:00,38.5,34.1,29.48,WNW,284,2.0,12.0,84,0.05,,,0.03,Wunderground v.1.15,2013-02-18 23:55:00,
2013-02-18 18:01:00,38.2,33.8,29.48,West,280,1.0,3.0,84,0.04,,,0.04,Wunderground v.1.15,2013-02-19 00:01:00,
2013-02-18 18:06:00,38.0,33.6,29.48,NW,309,1.0,3.0,84,0.09,,,0.05,Wunderground v.1.15,2013-02-19 00:06:00,
2013-02-18 18:12:00,37.8,33.7,29.48,NW,318,2.0,4.0,85,0.08,,,0.05,Wunderground v.1.15,2013-02-19 00:12:00,
2013-02-18 18:17:00,37.5,33.4,29.49,NW,305,3.0,8.0,85,0.07,,,0.06,Wunderground v.1.15,2013-02-19 00:17:00,
2013-02-18 18:22:00,37.2,33.1,29.49,NW,305,3.0,5.0,85,0.07,,,0.06,Wunderground v.1.15,2013-02-19 00:22:00,
2013-02-18 18:27:00,36.9,32.8,29.49,WNW,282,3.0,8.0,85,0.05,,,0.07,Wunderground v.1.15,2013-02-19 00:27:00,
2013-02-18 18:32:00,36.6,32.5,29.49,West,272,3.0,4.0,85,0.05,,,0.07,Wunderground v.1.15,2013-02-19 00:32:00,
2013-02-18 18:38:00,36.5,32.4,29.49,West,278,3.0,6.0,85,0.04,,,0.07,Wunderground v.1.15,2013-02-19 00:38:00,
2013-02-18 18:44:00,36.0,31.9,29.49,WNW,291,3.0,5.0,85,0.04,,,0.08,Wunderground v.1.15,2013-02-19 00:44:00,
2013-02-18 18:51:00,35.8,31.7,29.49,WNW,302,3.0,6.0,85,0.06,,,0.09,Wunderground v.1.15,2013-02-19 00:51:00,
2013-02-18 18:56:00,35.5,31.7,29.49,West,280,3.0,6.0,86,0.06,,,0.09,Wunderground v.1.15,2013-02-19 00:56:00,
2013-02-18 19:02:00,35.2,31.4,29.49,WSW,257,2.0,3.0,86,0.05,,,0.10,Wunderground v.1.15,2013-02-19 01:02:00,
2013-02-18 19:08:00,35.0,31.2,29.49,WNW,299,2.0,5.0,86,0.05,,,0.10,Wunderground v.1.15,2013-02-19 01:08:00,
2013-02-18 19:13:00,34.7,30.9,29.49,WNW,284,1.0,3.0,86,0.07,,,0.11,Wunderground v.1.15,2013-02-19 01:13:00,
2013-02-18 19:19:00,34.4,30.6,29.49,West,271,0.0,3.0,86,0.07,,,0.11,Wunderground v.1.15,2013-02-19 01:19:00,
2013-02-18 19:24:00,34.3,30.5,29.49,WNW,288,0.0,0.0,86,0.06,,,0.12,Wunderground v.1.15,2013-02-19 01:24:00,
2013-02-18 19:30:00,34.1,30.4,29.49,West,281,0.0,0.0,86,0.06,,,0.12,Wunderground v.1.15,2013-02-19 01:30:00,
2013-02-18 19:37:00,33.8,30.1,29.49,WNW,285,0.0,0.0,86,0.07,,,0.13,Wunderground v.1.15,2013-02-19 01:37:00,
2013-02-18 19:42:00,33.7,30.2,29.49,West,271,0.0,0.0,87,0.07,,,0.14,Wunderground v.1.15,2013-02-19 01:42:00,
2013-02-18 19:48:00,33.5,30.0,29.49,WNW,282,0.0,2.0,87,0.12,,,0.15,Wunderground v.1.15,2013-02-19 01:48:00,
2013-02-18 19:53:00,33.4,29.9,29.49,WNW,284,0.0,0.0,87,0.09,,,0.16,Wunderground v.1.15,2013-02-19 01:53:00,
2013-02-18 19:59:00,33.2,29.8,29.48,WNW,288,0.0,0.0,87,0.08,,,0.16,Wunderground v.1.15,2013-02-19 01:59:00,
2013-02-18 20:05:00,33.2,29.8,29.48,West,278,0.0,0.0,87,0.08,,,0.17,Wunderground v.1.15,2013-02-19 02:05:00,
2013-02-18 20:10:00,33.1,29.7,29.48,WNW,282,0.0,0.0,87,0.05,,,0.17,Wunderground v.1.15,2013-02-19 02:10:00,
2013-02-18 20:17:00,33.1,29.9,29.48,West,271,0.0,3.0,88,0.04,,,0.18,Wunderground v.1.15,2013-02-19 02:17:00,
2013-02-18 20:22:00,33.1,29.9,29.48,West,281,0.0,0.0,88,0.04,,,0.18,Wunderground v.1.15,2013-02-19 02:22:00,
2013-02-18 20:27:00,32.9,29.7,29.48,WNW,285,0.0,1.0,88,0.04,,,0.18,Wunderground v.1.15,2013-02-19 02:27:00,
2013-02-18 20:32:00,32.9,29.7,29.48,WNW,292,0.0,1.0,88,0.00,,,0.18,Wunderground v.1.15,2013-02-19 02:32:00,
2013-02-18 20:37:00,32.9,29.7,29.48,West,271,1.0,2.0,88,0.00,,,0.19,Wunderground v.1.15,2013-02-19 02:37:00,
2013-02-18 20:43:00,32.9,29.7,29.48,West,277,0.0,0.0,88,0.00,,,0.19,Wunderground v.1.15,2013-02-19 02:43:00,
2013-02-18 20:48:00,32.9,29.7,29.48,WNW,284,1.0,4.0,88,0.00,,,0.19,Wunderground v.1.15,2013-02-19 02:48:00,
2013-02-18 20:58:00,32.8,29.6,29.48,WSW,248,2.0,3.0,88,0.00,,,0.20,Wunderground v.1.15,2013-02-19 02:58:00,
2013-02-18 21:04:00,32.7,29.8,29.48,West,263,4.0,7.0,89,0.00,,,0.20,Wunderground v.1.15,2013-02-19 03:04:00,
2013-02-18 21:09:00,32.4,29.2,29.48,West,263,5.0,7.0,88,0.00,,,0.20,Wunderground v.1.15,2013-02-19 03:09:00,
2013-02-18 21:15:00,32.2,29.0,29.49,West,281,5.0,8.0,88,0.00,,,0.20,Wunderground v.1.15,2013-02-19 03:15:00,
2013-02-18 21:22:00,31.8,28.7,29.49,WNW,287,5.0,5.0,88,0.00,,,0.20,Wunderground v.1.15,2013-02-19 03:22:00,
2013-02-18 21:27:00,31.5,28.4,29.49,WSW,253,4.0,6.0,88,0.00,,,0.20,Wunderground v.1.15,2013-02-19 03:27:00,
2013-02-18 21:33:00,31.0,27.9,29.49,WSW,258,5.0,12.0,88,0.00,,,0.20,Wunderground v.1.15,2013-02-19 03:33:00,
2013-02-18 21:38:00,30.7,27.6,29.49,WSW,254,5.0,12.0,88,0.00,,,0.20,Wunderground v.1.15,2013-02-19 03:38:00,
2013-02-18 21:44:00,30.6,27.5,29.50,West,268,4.0,7.0,88,0.00,,,0.20,Wunderground v.1.15,2013-02-19 03:44:00,
2013-02-18 21:49:00,30.1,27.0,29.50,WSW,257,5.0,12.0,88,0.00,,,0.20,Wunderground v.1.15,2013-02-19 03:49:00,
2013-02-18 21:55:00,29.7,26.6,29.50,West,267,5.0,7.0,88,0.00,,,0.20,Wunderground v.1.15,2013-02-19 03:55:00,
2013-02-18 22:00:00,29.4,26.3,29.51,WSW,239,4.0,4.0,88,0.00,,,0.20,Wunderground v.1.15,2013-02-19 04:00:00,
2013-02-18 22:05:00,29.0,25.9,29.51,WNW,295,4.0,13.0,88,0.00,,,0.20,Wunderground v.1.15,2013-02-19 04:05:00,
2013-02-18 22:11:00,28.7,25.6,29.51,West,263,5.0,5.0,88,0.00,,,0.20,Wunderground v.1.15,2013-02-19 04:11:00,
2013-02-18 22:16:00,28.5,25.1,29.51,WSW,244,5.0,6.0,87,0.00,,,0.20,Wunderground v.1.15,2013-02-19 04:16:00,
2013-02-18 22:22:00,28.1,25.0,29.51,West,264,6.0,7.0,88,0.00,,,0.20,Wunderground v.1.15,2013-02-19 04:22:00,
2013-02-18 22:27:00,27.6,24.2,29.51,West,271,7.0,8.0,87,0.00,,,0.20,Wunderground v.1.15,2013-02-19 04:27:00,
2013-02-18 22:32:00,27.2,23.6,29.52,West,277,5.0,6.0,86,0.00,,,0.20,Wunderground v.1.15,2013-02-19 04:32:00,
2013-02-18 22:37:00,26.9,23.3,29.52,SW,227,4.0,7.0,86,0.00,,,0.20,Wunderground v.1.15,2013-02-19 04:37:00,
2013-02-18 22:43:00,26.6,23.0,29.52,WNW,282,5.0,7.0,86,0.00,,,0.20,Wunderground v.1.15,2013-02-19 04:43:00,
2013-02-18 22:49:00,25.8,21.9,29.53,WNW,282,6.0,10.0,85,0.00,,,0.20,Wunderground v.1.15,2013-02-19 04:49:00,
2013-02-18 22:55:00,25.4,21.5,29.53,WSW,257,6.0,11.0,85,0.00,,,0.20,Wunderground v.1.15,2013-02-19 04:55:00,
2013-02-18 23:00:00,25.1,21.2,29.55,West,280,5.0,5.0,85,0.00,,,0.20,Wunderground v.1.15,2013-02-19 05:00:00,
2013-02-18 23:02:00,25.0,21.1,29.55,WSW,254,5.0,5.0,85,0.00,,,0.20,Wunderground v.1.15,2013-02-19 05:02:00,
2013-02-18 23:04:00,25.0,21.1,29.55,WSW,250,4.0,7.0,85,0.00,,,0.20,Wunderground v.1.15,2013-02-19 05:04:00,
2013-02-18 23:08:00,24.8,20.9,29.55,WSW,250,4.0,7.0,85,0.00,,,0.20,Wunderground v.1.15,2013-02-19 05:08:00,
2013-02-18 23:13:00,24.4,20.3,29.55,West,263,5.0,8.0,84,0.00,,,0.20,Wunderground v.1.15,2013-02-19 05:13:00,
2013-02-18 23:19:00,24.1,19.7,29.55,WSW,254,5.0,8.0,83,0.00,,,0.20,Wunderground v.1.15,2013-02-19 05:19:00,
2013-02-18 23:25:00,23.6,19.2,29.55,West,271,5.0,8.0,83,0.00,,,0.20,Wunderground v.1.15,2013-02-19 05:25:00,
2013-02-18 23:30:00,23.3,18.9,29.56,West,265,5.0,6.0,83,0.00,,,0.20,Wunderground v.1.15,2013-02-19 05:30:00,
2013-02-18 23:36:00,23.2,18.8,29.56,West,268,5.0,8.0,83,0.00,,,0.20,Wunderground v.1.15,2013-02-19 05:36:00,
2013-02-18 23:41:00,22.9,18.2,29.56,WSW,253,5.0,6.0,82,0.00,,,0.20,Wunderground v.1.15,2013-02-19 05:41:00,
2013-02-18 23:46:00,22.4,17.7,29.57,West,277,6.0,9.0,82,0.00,,,0.20,Wunderground v.1.15,2013-02-19 05:46:00,
2013-02-18 23:52:00,22.2,17.5,29.57,WNW,301,5.0,5.0,82,0.00,,,0.20,Wunderground v.1.15,2013-02-19 05:52:00,
2013-02-18 23:57:00,22.2,17.5,29.57,NW,315,3.0,10.0,82,0.00,,,0.20,Wunderground v.1.15,2013-02-19 05:57:00,